DL4LAM-15 Weather Reports


time (UTC)temp
C
wind
direction
speed
KPH
gust
KPH
rain 1hr
cm
rain 24hr
cm
rain mn
cm
humidity
%
barometer
mb
20260502205518 18 0.0 0.0 0.00 0.00 0.00 71 1013.8
20260502205017 18 0.0 0.0 0.00 0.00 0.00 70 1013.8
20260502204017 18 0.0 0.0 0.00 0.00 0.00 69 1013.8
20260502203517 18 0.0 0.0 0.00 0.00 0.00 69 1013.8
20260502203017 18 0.0 0.0 0.00 0.00 0.00 68 1013.7
20260502202517 18 0.0 0.0 0.00 0.00 0.00 68 1013.8
20260502202017 18 0.0 0.0 0.00 0.00 0.00 67 1013.8
20260502201518 19 0.0 0.0 0.00 0.00 0.00 67 1013.9
20260502201017 19 0.0 0.0 0.00 0.00 0.00 66 1013.8
20260502200517 19 0.0 0.0 0.00 0.00 0.00 66 1013.9
20260502200017 19 0.0 0.0 0.00 0.00 0.00 65 1013.9
20260502195517 20 0.0 0.0 0.00 0.00 0.00 65 1013.9
20260502195017 20 0.0 0.0 0.00 0.00 0.00 64 1013.9
20260502194518 20 0.0 0.0 0.00 0.00 0.00 62 1013.8
20260502194017 20 0.0 0.0 0.00 0.00 0.00 61 1013.8
20260502193517 20 0.0 0.0 0.00 0.00 0.00 60 1013.8
20260502193017 21 0.0 0.0 0.00 0.00 0.00 59 1013.8
20260502192517 21 0.0 0.0 0.00 0.00 0.00 58 1013.7
20260502191517 21 0.0 0.0 0.00 0.00 0.00 56 1013.7
20260502191017 22 0.0 0.0 0.00 0.00 0.00 55 1013.7
20260502190517 22 0.0 0.0 0.00 0.00 0.00 55 1013.7
20260502190037 22 0.0 0.0 0.00 0.00 0.00 54 1013.7
20260502185517 22 0.0 0.0 0.00 0.00 0.00 53 1013.7
20260502185017 23 0.0 0.0 0.00 0.00 0.00 52 1013.7
20260502184517 23 0.0 0.0 0.00 0.00 0.00 50 1013.7
20260502184017 23 0.0 0.0 0.00 0.00 0.00 49 1013.7
20260502183517 23 0.0 0.0 0.00 0.00 0.00 49 1013.7
20260502183017 23 0.0 0.0 0.00 0.00 0.00 48 1013.8
20260502182517 24 0.0 0.0 0.00 0.00 0.00 47 1013.7
20260502182017 24 0.0 0.0 0.00 0.00 0.00 47 1013.8
20260502181517 24 0.0 0.0 0.00 0.00 0.00 47 1013.8
20260502181017 25 0.0 0.0 0.00 0.00 0.00 45 1013.8
20260502180518 25 0.0 0.0 0.00 0.00 0.00 45 1013.8
20260502170517 26 0.0 1.6 0.00 0.00 0.00 40 1013.9
20260502164017 26 0.0 4.8 0.00 0.00 0.00 38 1014.2
20260502163517 26 0.0 4.8 0.00 0.00 0.00 38 1014.3
20260502163017 26 0.0 3.2 0.00 0.00 0.00 39 1014.3
20260502162517 26 0.0 1.6 0.00 0.00 0.00 38 1014.4
20260502162017 26 0.0 1.6 0.00 0.00 0.00 38 1014.5
20260502161517 26 0.0 3.2 0.00 0.00 0.00 38 1014.5
20260502161017 26 0.0 3.2 0.00 0.00 0.00 37 1014.6
20260502160517 26 0.0 0.0 0.00 0.00 0.00 38 1014.7
20260502151517 27 0.0 1.6 0.00 0.00 0.00 35 1015.0
20260502151017 27 0.0 3.2 0.00 0.00 0.00 35 1015.0
20260502150517 27 0.0 4.8 0.00 0.00 0.00 34 1015.1
20260502130517 30 0.0 3.2 0.00 0.00 0.00 29 1016.4
20260502123517 29 0.0 3.2 0.00 0.00 0.00 27 1016.7
20260502123017 29 0.0 6.4 0.00 0.00 0.00 28 1016.8
20260502122517 28 0.0 3.2 0.00 0.00 0.00 28 1016.8
20260502121017 28 0.0 4.8 0.00 0.00 0.00 30 1016.9
20260502120517 28 113 1.6 8.0 0.00 0.00 0.00 28 1017.1
20260502115517 28 0.0 4.8 0.00 0.00 0.00 28 1017.4
20260502114517 28 135 3.2 14.5 0.00 0.00 0.00 29 1017.3
20260502114037 28 203 1.6 4.8 0.00 0.00 0.00 30 1017.3
20260502113017 28 113 1.6 8.0 0.00 0.00 0.00 30 1017.5
20260502112517 28 0.0 8.0 0.00 0.00 0.00 30 1017.6
20260502112017 27 0.0 1.6 0.00 0.00 0.00 31 1017.6
20260502111517 27 0.0 4.8 0.00 0.00 0.00 33 1017.7
20260502111017 26 0.0 8.0 0.00 0.00 0.00 32 1017.9
20260502110517 26 113 1.6 12.9 0.00 0.00 0.00 33 1017.9
20260502105517 26 113 3.2 11.3 0.00 0.00 0.00 33 1018.0
20260502105018 26 113 3.2 9.7 0.00 0.00 0.00 33 1018.0
20260502104517 26 90 4.8 12.9 0.00 0.00 0.00 33 1018.0
20260502104017 26 158 3.2 12.9 0.00 0.00 0.00 33 1018.1
20260502103518 26 90 3.2 12.9 0.00 0.00 0.00 33 1018.0
20260502103017 26 68 1.6 11.3 0.00 0.00 0.00 34 1018.1
20260502102517 26 90 4.8 14.5 0.00 0.00 0.00 33 1018.1
20260502102017 26 90 4.8 14.5 0.00 0.00 0.00 34 1018.2
20260502101517 26 113 3.2 14.5 0.00 0.00 0.00 33 1018.3
20260502101017 26 248 1.6 9.7 0.00 0.00 0.00 33 1018.3
20260502100517 26 113 1.6 11.3 0.00 0.00 0.00 32 1018.5
20260502091517 25 135 1.6 6.4 0.00 0.00 0.00 36 1019.2
20260502091017 24 0.0 3.2 0.00 0.00 0.00 37 1019.2
20260502090517 24 113 1.6 11.3 0.00 0.00 0.00 38 1019.2
20260502071517 20 158 1.6 4.8 0.00 0.00 0.00 50 1019.7
20260502071017 19 135 3.2 11.3 0.00 0.00 0.00 51 1019.8
20260502070517 19 45 1.6 4.8 0.00 0.00 0.00 53 1019.9
20260502070017 18 90 1.6 9.7 0.00 0.00 0.00 54 1019.9
20260502065517 18 90 3.2 12.9 0.00 0.00 0.00 54 1020.0
20260502065016 18 90 4.8 14.5 0.00 0.00 0.00 54 1020.0
20260502064517 18 90 3.2 11.3 0.00 0.00 0.00 56 1020.1
20260502064017 18 68 1.6 8.0 0.00 0.00 0.00 57 1020.0
20260502062517 17 68 3.2 12.9 0.00 0.00 0.00 58 1020.1
20260502062016 17 68 1.6 6.4 0.00 0.00 0.00 58 1020.1
20260502061517 17 90 1.6 11.3 0.00 0.00 0.00 59 1020.2
20260502061017 16 0.0 4.8 0.00 0.00 0.00 60 1020.2
20260502060517 16 113 1.6 8.0 0.00 0.00 0.00 61 1020.3
20260502060016 16 90 3.2 8.0 0.00 0.00 0.00 61 1020.3
20260502055517 16 90 1.6 8.0 0.00 0.00 0.00 62 1020.3
20260502055017 15 113 1.6 8.0 0.00 0.00 0.00 63 1020.3
20260502053518 15 90 1.6 8.0 0.00 0.00 0.00 64 1020.3
20260502053017 15 90 1.6 9.7 0.00 0.00 0.00 65 1020.4
20260502052016 14 113 1.6 6.4 0.00 0.00 0.00 65 1020.3
20260502051516 14 90 1.6 8.0 0.00 0.00 0.00 66 1020.4
20260502051017 14 68 1.6 6.4 0.00 0.00 0.00 66 1020.4
20260502050517 14 113 1.6 6.4 0.00 0.00 0.00 66 1020.4
20260502050017 13 90 1.6 8.0 0.00 0.00 0.00 67 1020.5
20260502045516 13 158 1.6 8.0 0.00 0.00 0.00 67 1020.5
20260502044517 13 68 1.6 4.8 0.00 0.00 0.00 68 1020.5
20260502044017 13 0.0 4.8 0.00 0.00 0.00 69 1020.5
20260502043517 12 68 1.6 8.0 0.00 0.00 0.00 70 1020.5
20260502043016 12 135 1.6 8.0 0.00 0.00 0.00 71 1020.5
20260502042017 12 90 1.6 8.0 0.00 0.00 0.00 72 1020.5
20260502041516 12 90 1.6 8.0 0.00 0.00 0.00 72 1020.5
20260502041017 12 90 1.6 4.8 0.00 0.00 0.00 72 1020.5
20260502040517 12 90 1.6 4.8 0.00 0.00 0.00 72 1020.5
20260502040016 12 90 1.6 4.8 0.00 0.00 0.00 73 1020.5
20260502035517 12 90 1.6 4.8 0.00 0.00 0.00 73 1020.6
20260502035016 12 90 1.6 8.0 0.00 0.00 0.00 73 1020.5
20260502034517 12 0.0 4.8 0.00 0.00 0.00 72 1020.6
20260502034017 12 90 1.6 8.0 0.00 0.00 0.00 72 1020.7
20260502033016 12 0.0 3.2 0.00 0.00 0.00 73 1020.8
20260502032516 12 0.0 3.2 0.00 0.00 0.00 73 1020.8
20260502032016 12 0.0 4.8 0.00 0.00 0.00 73 1020.8
20260502031517 12 0.0 3.2 0.00 0.00 0.00 73 1020.9
20260502031017 11 0.0 1.6 0.00 0.00 0.00 74 1021.0
20260502030516 11 0.0 0.0 0.00 0.00 0.00 75 1021.0
20260502025517 11 0.0 1.6 0.00 0.00 0.00 75 1021.0
20260502025017 11 0.0 3.2 0.00 0.00 0.00 76 1021.1
20260502024516 11 0.0 0.0 0.00 0.00 0.00 76 1021.1
20260502023516 11 0.0 0.0 0.00 0.00 0.00 77 1021.2
20260502023017 11 0.0 1.6 0.00 0.00 0.00 78 1021.2
20260502022017 11 0.0 1.6 0.00 0.00 0.00 79 1021.3
20260502021517 11 0.0 0.0 0.00 0.00 0.00 79 1021.3
20260502021016 11 0.0 0.0 0.00 0.00 0.00 79 1021.4
20260502020516 11 0.0 0.0 0.00 0.00 0.00 80 1021.4
20260502020017 11 0.0 1.6 0.00 0.00 0.00 80 1021.4
20260502015516 11 0.0 1.6 0.00 0.00 0.00 80 1021.4
20260502015016 11 0.0 0.0 0.00 0.00 0.00 81 1021.4
20260502014517 11 0.0 1.6 0.00 0.00 0.00 81 1021.5
20260502014016 11 0.0 0.0 0.00 0.00 0.00 81 1021.5
20260502013516 11 0.0 0.0 0.00 0.00 0.00 80 1021.6
20260502013016 11 0.0 0.0 0.00 0.00 0.00 80 1021.7
20260502012516 11 0.0 0.0 0.00 0.00 0.00 80 1021.7
20260502012016 11 0.0 0.0 0.00 0.00 0.00 79 1021.8
20260502011516 11 0.0 0.0 0.00 0.00 0.00 79 1021.9
20260502011016 12 0.0 0.0 0.00 0.00 0.00 79 1021.9
20260502010516 12 0.0 0.0 0.00 0.00 0.00 80 1021.9
20260502010016 12 0.0 0.0 0.00 0.00 0.00 80 1022.0
20260502005516 12 0.0 0.0 0.00 0.00 0.00 80 1022.1
20260502005016 12 0.0 0.0 0.00 0.00 0.00 81 1022.0
20260502004516 12 0.0 0.0 0.00 0.00 0.00 80 1022.1
20260502004018 12 0.0 0.0 0.00 0.00 0.00 79 1022.2
20260502003516 12 0.0 0.0 0.00 0.00 0.00 78 1022.3
20260502003016 12 0.0 0.0 0.00 0.00 0.00 77 1022.2
20260502002516 12 0.0 0.0 0.00 0.00 0.00 77 1022.3
20260502002016 12 0.0 1.6 0.00 0.00 0.00 76 1022.3
20260502001516 12 0.0 0.0 0.00 0.00 0.00 76 1022.3
20260502001016 12 0.0 3.2 0.00 0.00 0.00 76 1022.3
20260502000516 12 0.0 1.6 0.00 0.00 0.00 79 1022.4
20260502000016 12 0.0 1.6 0.00 0.00 0.00 81 1022.4
20260501234016 12 0.0 0.0 0.00 0.00 0.00 79 1022.5
20260501233516 12 0.0 0.0 0.00 0.00 0.00 78 1022.6
20260501233016 12 0.0 0.0 0.00 0.00 0.00 77 1022.6
20260501232516 12 0.0 0.0 0.00 0.00 0.00 77 1022.7
20260501232016 12 0.0 0.0 0.00 0.00 0.00 76 1022.7
20260501231516 12 0.0 0.0 0.00 0.00 0.00 75 1022.7
20260501231017 12 0.0 0.0 0.00 0.00 0.00 74 1022.7
20260501230516 13 0.0 0.0 0.00 0.00 0.00 74 1022.7
20260501230016 13 0.0 0.0 0.00 0.00 0.00 73 1022.8
20260501225016 13 0.0 0.0 0.00 0.00 0.00 71 1022.8
20260501224016 13 0.0 0.0 0.00 0.00 0.00 70 1022.9
20260501223516 13 0.0 0.0 0.00 0.00 0.00 69 1022.9
20260501223016 13 0.0 0.0 0.00 0.00 0.00 69 1022.9
20260501222516 13 0.0 0.0 0.00 0.00 0.00 69 1022.9
20260501222016 14 0.0 0.0 0.00 0.00 0.00 68 1022.9
20260501221516 14 0.0 0.0 0.00 0.00 0.00 68 1022.9
20260501221016 14 0.0 0.0 0.00 0.00 0.00 68 1022.9
20260501220516 14 0.0 0.0 0.00 0.00 0.00 67 1022.9
20260501220016 15 0.0 0.0 0.00 0.00 0.00 68 1022.9
20260501215517 15 0.0 0.0 0.00 0.00 0.00 67 1022.9
20260501215017 15 0.0 1.6 0.00 0.00 0.00 66 1022.9
20260501214517 15 0.0 1.6 0.00 0.00 0.00 67 1022.9
20260501214017 15 0.0 0.0 0.00 0.00 0.00 68 1022.9
20260501213517 15 0.0 0.0 0.00 0.00 0.00 67 1022.8
20260501212517 15 0.0 0.0 0.00 0.00 0.00 68 1022.8
20260501212018 15 0.0 0.0 0.00 0.00 0.00 68 1022.9
20260501211517 15 0.0 0.0 0.00 0.00 0.00 67 1022.9
20260501211037 15 0.0 0.0 0.00 0.00 0.00 67 1022.9